Погода Петропавловск-Каз.

Погода Петропавловск-Каз. : погода сейчас, прогноз погоды и архив. Всё, что Вы хотите узнать о погоде Петропавловск-Каз.!

Поиск расширенной информации на нашем сайте:

Другие новости

Новости СМИ2

Главная страница сайта

Новости сайта

03.07.2017

Напоминаем, что на нашем специализированном сайте Метеоцентр.Азия вы можете получить высокодетализированные автоматические прогнозы погоды по пунктам России, СНГ и мира в авиационном формате (включающие направление и скорость ветра, видимость, явления погоды, количество и форму облачности, нижнюю и верхнюю границу облачности).


Погода Петропавловск-Каз. - сегодня

Время (UTC), дата Ветер
(°,м/с) 
Видим.   Явления Облачность Т
(°С)
Тd
(°С)
f(%) Тe
(°С)
Pmin
(гПа)
dP
(гПа)
Po
(мм)
O2
(г/м3)
Тmin Tmax R s Состояние
почвы
15 08.12.17 130 (ЮВ) н/о    4/0 средняя 
[Ac trans]
-8.8 -11.7 79 -13  1019.1  -1.9  754  315    -4.1       
18 08.12.17 130 (ЮВ) н/о    8/8 1000 м средняя 
[Sc|Ac trans]
-7.4 -11.3 74 -13  1016.5  -2.5  753  313    -4.1       
21 08.12.17 110 (В) н/о    6/0 средняя, верхняя 
[Ac trans|Cc]
-8.2 -12.4 72 -14  1015  -1.4  752  313           
00 09.12.17 110 (В) н/о    4/0 средняя 
[Ac trans]
-6.8 -12 66 -13  1011.8  -3.2  749  311           
03 09.12.17 130 (ЮВ) 7{17}  н/о    8/8 1000 м средняя 
[Sc|Ac trans]
-7.6 -12.6 67 -13  1010.9  -0.9  748  311           
09 09.12.17 160 (Ю) 9-15{22}  10 км    10/10 1000 м 
[Sc]
-7.2 -11.5 71 -13  1008.3  -0.6  747  310           
12 09.12.17 130 (ЮВ) 6{22}  н/о    10/10 1000 м 
[Sc]
-6.6 -10.3 75 -11  1008.1  -0.2  746  309           
18 09.12.17 180 (Ю) н/о  слаб. снег  10/0 средняя 
[As op]
-4.2 -6.1 87 -8  1009.1  0.9  747  306    -4.5  0.3     
21 09.12.17 130 (ЮВ) н/о  {ливн. осадки}  3/1 1000 м средняя 
[Sc|Ac trans]
-9.3 -11.3 85 -11  1010.5  1.2  748  313           
09 10.12.17 050 (СВ) 10 км  {ливн. осадки}  6/3 1000 м средняя 
[Sc|Ac trans]
-5.7 -7.5 87 -7  1013.9  -0.1  751  310           
18 10.12.17 310 (СЗ) н/о  слаб. снег  10/10 300 м 
[Ns]
-6.5 -7.7 91 -8  1017.1  753  312    -5.4     
21 10.12.17 320 (СЗ) н/о  {снег}  9/9 1000 м 
[Sc]
-7.4 -8.7 90 -10  1017.9  0.8  754  313           
03 11.12.17 320 (СЗ) н/о  слаб. снег  10/0 средняя 
[As trans]
-7.4 -9.1 88 -9  1021  1.7  756  314      равномерный
сухой снег
100% 
09 11.12.17 310 (СЗ) 10 км  {снег}  8/6 1000 м средняя 
[Sc|Ac trans]
-9.5 -12.5 79 -11  1023.7  1.1  758  318           
12 11.12.17 270 (З) н/о  слаб. снег  10/8 600 м кучево-дожд., средняя 
[Cb cap|Ac trans]
-11.5 -13.1 88 -11  1025.7  1.8  759  321           
21 11.12.17 280 (З) н/о  слаб. снег  10/10 600 м 
[St]
-10.4 -12 88 -10  1031  1.5  763  321           
03 12.12.17 тихо ()   н/о  слаб. снег  9/8 1000 м средняя 
[Sc|Ac As]
-11.9 -13.3 89 -12  1034.5  766  324      0.2  11  равномерный
сухой снег
100% 
06 12.12.17 тихо ()   4000 м  дымка{снег}  6/4 1000 м средняя 
[Sc|Ac trans]
-15.1 -16.9 86 -15  1036.8  2.1  767  329  -11.9    0.2     
09 12.12.17 210 (ЮЗ) 10 км  {снег}  3/0 верхняя 
[Ci]
-9.6 -13.7 72 -9  1037.1  0.6  768  322           
12 12.12.17 тихо ()   н/о    3/0 верхняя 
[Ci]
-17.8 -20.4 80 -18  1039.3  1.7  769  333           
18 12.12.17 180 (Ю) н/о    ясно 
-22.1 -24.9 78 -22  1043  1.3  772  340    -9.6  0.1     
21 12.12.17 220 (ЮЗ) н/о  дымка  ясно 
-18.2 -20.7 81 -18  1043.7  0.9  772  335           
00 13.12.17 220 (ЮЗ) н/о  дымка  ясно 
-18.6 -21.2 80 -19  1044.5  0.8  773  336           
03 13.12.17 тихо ()   н/о  слаб. снег  9/8 1000 м средняя 
[Sc|Ac As]
-18.8 -21 83 -19  1045  0.5  773  336      0.0  11  равномерный
сухой снег
100% 
06 13.12.17 220 (ЮЗ) 2000 м  слаб. снег  10/0 средняя 
[Ac As]
-17.6 -19.4 86 -18  1046.5  1.5  774  335  -22.1    0.0     
Время (UTC), дата Ветер
(°,м/с) 
Видим.   Явления Облачность Т
(°С)
Тd
(°С)
f(%) Тe
(°С)
Pmin
(гПа)
dP
(гПа)
Po
(мм)
O2
(г/м3)
Тmin Tmax R s Состояние
почвы

Для получения пояснительной информации подведите курсор к названию столбца.

ПОГОДА Петропавловск-Каз. - архив

Всё, что Вы хотите узнать о погоде Петропавловск-Каз. - удобно и подробно!

Выберите нужную дату (начиная с 1 января 2015* года) и нажмите кнопку "Найти".
Будут отображены архивные сводки погоды по пункту Петропавловск-Каз., начиная с указанной даты.


Отображать данные в формате CSV (для использования в таблицах Excel)


Внимание! Наш архив погоды предназначен исключительно для личного некоммерческого использования в познавательных целях. Если Вам необходимы официальные справки о состоянии погоды (для производственных, юридических, коммерческих и т.п. целей), обращайтесь в органы Росгидромета.

*Примечание: данная дата относится к архиву по метеостанциям СССР (Россия, СНГ, Балтия).
Архив по метеостанциям Зарубежной Европы и Азии (кроме Китая) хранится 10 дней, по другим регионам земного шара (Китай, Африка, Америка, Австралия, Океания) - 1 день.

Петропавловск-Каз. - район местоположения метеостанции


Название, широта, долгота, высота метеостанции:
Петропавловск-Каз. 54.8°ш. 69.2°д. 142 м над ур. моря [Казахстан]

Дополнительная информация

В oтличие oт бoльшинства пoгoдных сайтoв мы публикуем пoдрoбную метеoинфoрмацию в детальнoм прoфессиoнальнoм фoрмате.

Характеристики температуры и влажнoсти вoздуха измеряются на высoте 2 м в тени вдали oт зданий и деревьев.
Скoрoсть ветра измеряется на высoте 10 м (на урoвне рoста челoвека скoрoсть ветра ниже в 1.5-2 раза). Если метеoстанция нахoдится в гoрoде или в лесу, тo скoрoсть ветра занижена на 2-4 м/с пo сравнению с oткрытым местoм. Скoрoсть ветра над акватoриями крупных рек и oзёр, а также на вершинах хoлмoв на 2-5 м/с выше, чем в oбычных услoвиях.
Атмoсфернoе давление в разных тoчках местнoсти мoжет значительнo oтличаться oт давления на метеoстанции, в зависимoсти oт услoвий рельефа (при пoдъёме на 10 м давление пoнижается примернo на 1 мм рт.ст.).